Location: Cudham
(51.3000°N, 0.0667°E)
Time: 17:09:27
(UTC+00:00)

USA 229 DEB - Pass Details

Date: 20 April 2026
Orbit: 844 x 1364 km, 63.4° (Epoch: 10 January)

Event Time Altitude Azimuth Distance (km) Brightness Sun altitude
Rises 01:23:23 0° 314° (NW) 3,998 7.0 -24.6°
Reaches altitude 10° 01:26:08 10° 307° (NW) 3,108 6.3 -24.4°
Maximum altitude 01:33:05 42° 241° (WSW) 1,753 4.4 -24.0°
Enters shadow 01:33:53 41° 227° (SW) 1,789 4.4 -23.9°
